Flag for Ireland Weather past 2 weeks in Dublin, Ireland

Now
48 °F

Partly sunny.


Feels Like: 43 °F
Forecast: 44 / 64 °F
Wind: 14 mph from West

Location: Dublin Airport

Current Time: May 25, 2015 at 7:23:51 AM

Latest Report: May 25, 2015 at 7:00 AM


Visibility: N/A

Pressure: 30.12 "Hg

Humidity: 94%

Dew point: 46 °F

Location of DublinLocation

Historic Weather in Dublin — Graph

°F

Dublin temperature yesterday

Maximum temperature yesterday: 61 °F (at 4:00 PM)
Minimum temperature yesterday: 45 °F (at 11:00 PM)
Average temperature yesterday: 54 °F

Past Weeks' High & Low Weather Summary

 TemperatureHumidityPressure
High64 °F (May 22, 6:30 PM)100% (May 13, 3:30 AM)30.33 "Hg (May 13, 3:30 AM)
Low34 °F (May 13, 4:30 AM)45% (May 11, 4:00 PM)29.47 "Hg (May 18, 5:30 PM)
Average51 °F79%30.02 "Hg
* Reported May 10 6:00 AM — May 25 6:00 AM, Dublin, Weather by CustomWeather, © 2015

Note: Actual official high and low records may vary slightly from our data, if they occured in-between our weather recording intervals... More about our weather records

Advertising

Dublin weather history for previous 24 hours

 ConditionsComfort  
Time TempWeatherWind HumidityBarometerVisibility
6:00 AM
Mon, May 25
48 °FPartly cloudy.14 mph87%30.12 "HgN/A
5:30 AM48 °FPassing clouds.15 mph87%30.12 "HgN/A
5:00 AM48 °FPassing clouds.15 mph87%30.12 "HgN/A
4:30 AM48 °FPassing clouds.14 mph87%30.12 "HgN/A
4:00 AM48 °FPassing clouds.13 mph87%30.12 "HgN/A
3:30 AM48 °FPassing clouds.12 mph82%30.15 "HgN/A
3:00 AM48 °FPassing clouds.9 mph87%30.15 "HgN/A
2:30 AM48 °FLight rain. Passing clouds.12 mph82%30.15 "HgN/A
2:00 AM48 °FClear.12 mph87%30.15 "Hg10 mi
1:30 AM48 °FOvercast.9 mph87%30.15 "HgN/A
1:00 AM48 °FPartly cloudy.10 mph87%30.15 "HgN/A
12:30 AM48 °FLight rain. Passing clouds.7 mph87%30.15 "HgN/A
12:00 AM48 °FLight rain. Passing clouds.5 mph87%30.15 "HgN/A
11:30 PM
Sun, May 24
48 °FPassing clouds.5 mph87%30.15 "HgN/A
11:00 PM45 °FPassing clouds.3 mph93%30.15 "HgN/A
10:30 PM46 °FPassing clouds.6 mph82%30.18 "HgN/A
10:00 PM46 °FPassing clouds.6 mph82%30.18 "HgN/A
9:30 PM52 °FPassing clouds.9 mph72%30.15 "HgN/A
9:00 PM54 °FPartly sunny.9 mph67%30.15 "HgN/A
8:30 PM55 °FPartly sunny.12 mph63%30.15 "HgN/A
8:00 PM55 °FPartly sunny.10 mph67%30.15 "HgN/A
7:30 PM57 °FPartly sunny.10 mph59%30.15 "HgN/A
7:00 PM57 °FPartly sunny.12 mph59%30.15 "HgN/A
6:30 PM57 °FPartly sunny.14 mph63%30.15 "HgN/A
6:00 PM59 °FPartly sunny.14 mph55%30.12 "HgN/A
5:30 PM59 °FPartly sunny.14 mph59%30.12 "HgN/A
5:00 PM61 °FPartly sunny.12 mph55%30.12 "HgN/A
4:30 PM59 °FPartly sunny.12 mph59%30.12 "HgN/A
4:00 PM61 °FPartly sunny.14 mph59%30.12 "HgN/A
3:30 PM59 °FPartly sunny.16 mph63%30.12 "HgN/A
3:00 PM59 °FPartly sunny.12 mph59%30.15 "HgN/A
2:30 PM57 °FPartly sunny.15 mph63%30.15 "HgN/A
2:00 PM59 °FPartly sunny.14 mph63%30.15 "HgN/A
1:30 PM55 °FPartly sunny.14 mph67%30.15 "HgN/A
1:00 PM54 °FPartly sunny.14 mph67%30.15 "HgN/A
12:30 PM55 °FPartly sunny.15 mph67%30.15 "HgN/A
12:00 PM54 °FPartly sunny.15 mph67%30.15 "HgN/A
11:30 AM52 °FPartly sunny.15 mph72%30.15 "HgN/A
11:00 AM52 °FPartly sunny.14 mph72%30.15 "HgN/A
10:30 AM52 °FPartly sunny.13 mph77%30.15 "HgN/A
10:00 AM50 °FPartly sunny.15 mph76%30.15 "HgN/A
9:30 AM50 °FBroken clouds.15 mph76%30.15 "HgN/A
9:00 AM48 °FPartly sunny.14 mph87%30.12 "HgN/A
8:30 AM50 °FPartly sunny.12 mph82%30.12 "HgN/A
8:00 AM50 °FBroken clouds.13 mph88%30.12 "HgN/A
7:30 AM50 °FBroken clouds.13 mph94%30.09 "HgN/A
7:00 AM52 °FDrizzle. Broken clouds.14 mph94%30.09 "HgN/A
Weather by CustomWeather, © 2015

See weather overviewHow to use our weather pages